Location: Hickory_CSC
(35.7330°N, 81.3330°W)
Time: 02:17:22
(UTC-04:00)

Cosmos 1356 Rocket - Visible Passes

Search period start: 24 July 2014 00:00
Search period end: 03 August 2014 00:00
Orbit: 549 x 609 km, 81.2° (Epoch: 23 July)

Date Brightness Start Highest point End Pass type
(mag) Time Alt. Az. Time Alt. Az. Time Alt. Az.
24 Jul 3.5 04:52:41 33° SSW 04:54:25 60° W 04:58:33 10° N visible
25 Jul 6.1 03:21:27 12° ESE 03:22:24 12° E 03:24:05 10° ENE visible
25 Jul 4.0 04:57:48 31° WSW 04:59:09 41° WNW 05:03:05 10° N visible
26 Jul 5.7 03:26:32 17° E 03:26:58 18° E 03:29:45 10° NE visible
26 Jul 4.5 05:02:52 25° WSW 05:03:53 28° WNW 05:07:30 10° NNW visible
27 Jul 5.2 03:31:35 25° E 03:31:35 25° E 03:34:58 10° NE visible
27 Jul 4.9 05:07:55 19° W 05:08:40 20° WNW 05:11:46 10° NNW visible
28 Jul 4.8 03:36:36 34° E 03:36:36 34° E 03:39:59 10° NNE visible
28 Jul 5.3 05:12:56 14° W 05:13:28 14° WNW 05:15:45 10° NW visible
29 Jul 4.4 03:41:35 45° ENE 03:41:35 45° ENE 03:44:51 10° NNE visible
30 Jul 4.2 03:46:33 49° NNE 03:46:33 49° NNE 03:49:37 10° NNE visible
31 Jul 4.4 03:51:29 42° N 03:51:29 42° N 03:54:17 10° N visible
01 Aug 4.8 03:56:24 32° NNW 03:56:24 32° NNW 03:58:51 10° N visible
02 Aug 6.5 02:24:58 10° NE 02:24:58 10° NE 02:25:05 10° NE visible
02 Aug 5.2 04:01:18 23° NW 04:01:18 23° NW 04:03:19 10° NNW visible
